Estación de Maule

Ultimos registro cada 15 minutos 77
Estación Fecha / Hora Temperatura Humedad Lluvia Velocidad Dirección Radiación Presion
77 Maule 02-05-2026 19:15 9,2 82 0 0 163 0 1017,4
76 Maule 02-05-2026 19:00 10,2 81 0 0 163 0 1017,6
75 Maule 02-05-2026 18:45 11,2 77 0 0 163 0 1017,4
74 Maule 02-05-2026 18:30 12,7 72 0 0 163 0 1017,1
73 Maule 02-05-2026 18:15 14,7 66 0 0 163 0 1017
72 Maule 02-05-2026 18:00 16,1 61 0 0 163 0 1016,7
71 Maule 02-05-2026 17:45 17,3 54 0 0 163 11 1016,5
70 Maule 02-05-2026 17:30 17,9 52 0 0 163 18 1016,3
69 Maule 02-05-2026 17:15 18,9 48 0 0 163 21 1016,3
68 Maule 02-05-2026 17:00 18,9 46 0 0 163 83 1016,4
67 Maule 02-05-2026 16:45 19,1 45 0 0 168 151 1016,5
66 Maule 02-05-2026 16:30 18,9 45 0 0,4 147 209 1016,6
65 Maule 02-05-2026 16:15 19,1 46 0 0,4 133 260 1016,8
64 Maule 02-05-2026 16:00 19,1 45 0 0,4 131 304 1016,7
63 Maule 02-05-2026 15:45 19 46 0 0,9 180 346 1016,8
62 Maule 02-05-2026 15:30 18,8 47 0 0 149 385 1016,8
61 Maule 02-05-2026 15:15 18,4 46 0 0 206 420 1016,9
60 Maule 02-05-2026 15:00 18,2 49 0 0,4 208 452 1016,9
59 Maule 02-05-2026 14:45 17,8 47 0 1,3 140 485 1016,9
58 Maule 02-05-2026 14:30 17,4 49 0 0,4 174 515 1016,8
57 Maule 02-05-2026 14:15 16,9 52 0 0,9 163 540 1016,9
56 Maule 02-05-2026 14:00 16,4 54 0 2,2 190 561 1017,2
55 Maule 02-05-2026 13:45 16 57 0 1,3 158 582 1017,3
54 Maule 02-05-2026 13:30 15,3 58 0 0 185 594 1017,5
53 Maule 02-05-2026 13:15 14,9 57 0 2,2 199 606 1017,5
52 Maule 02-05-2026 13:00 14,4 57 0 0,4 163 613 1017,8
51 Maule 02-05-2026 12:45 13,9 59 0 1,8 185 619 1018,1
50 Maule 02-05-2026 12:30 13,2 61 0 1,8 185 621 1018,3
49 Maule 02-05-2026 12:15 12,7 61 0 1,8 141 617 1018,8
48 Maule 02-05-2026 12:00 12,3 63 0 1,8 255 610 1019
47 Maule 02-05-2026 11:45 11,6 64 0 0,9 195 601 1019,2
46 Maule 02-05-2026 11:30 11,1 67 0 3,1 199 587 1019,4
45 Maule 02-05-2026 11:15 10,8 67 0 1,3 195 568 1019,8
44 Maule 02-05-2026 11:00 10,2 70 0 1,3 165 548 1019,8
43 Maule 02-05-2026 10:45 9,8 70 0 3,1 201 522 1019,9
42 Maule 02-05-2026 10:30 9,2 71 0 0,9 174 494 1020
41 Maule 02-05-2026 10:15 8,9 71 0 1,3 185 462 1020,3
40 Maule 02-05-2026 10:00 8,6 74 0 0,9 166 429 1020,4
39 Maule 02-05-2026 09:45 8 76 0 0,9 206 392 1020,5
38 Maule 02-05-2026 09:30 7,6 79 0 2,2 153 353 1020,6
37 Maule 02-05-2026 09:15 7,1 81 0 1,8 185 309 1020,8
36 Maule 02-05-2026 09:00 6,4 82 0 1,3 152 267 1020,9
35 Maule 02-05-2026 08:45 5,9 85 0 0,9 203 221 1020,7
34 Maule 02-05-2026 08:30 5,6 86 0 1,3 195 163 1020,8
33 Maule 02-05-2026 08:15 5 87 0 2,2 185 111 1020,4
32 Maule 02-05-2026 08:00 4,5 88 0 1,8 181 42 1020,6
31 Maule 02-05-2026 07:45 4,4 88 0 1,3 174 28 1020,5
30 Maule 02-05-2026 07:30 4,8 86 0 2,2 202 0 1020,5
29 Maule 02-05-2026 07:15 5 86 0 1,8 185 0 1020,5
28 Maule 02-05-2026 06:45 5,3 86 0 2,2 195 0 1020,4
27 Maule 02-05-2026 06:30 5,2 87 0 1,8 190 0 1020,4
26 Maule 02-05-2026 06:15 5,1 87 0 1,8 190 0 1020,5
25 Maule 02-05-2026 06:00 5,3 87 0 0,9 185 0 1020,4
24 Maule 02-05-2026 05:45 5,4 88 0 0,9 195 0 1020,5
23 Maule 02-05-2026 05:30 5,3 88 0 1,3 181 0 1020,4
22 Maule 02-05-2026 05:15 5,2 89 0 0,9 200 0 1020,5
21 Maule 02-05-2026 05:00 5,1 89 0 1,3 185 0 1020,5
20 Maule 02-05-2026 04:45 5,2 88 0 0,4 180 0 1020,8
19 Maule 02-05-2026 04:30 5,6 88 0 0,9 180 0 1020,8
18 Maule 02-05-2026 04:15 5,8 87 0 1,3 180 0 1020,9
17 Maule 02-05-2026 04:00 6,1 86 0 0,9 195 0 1021,2
16 Maule 02-05-2026 03:45 6,3 86 0 1,8 185 0 1021,2
15 Maule 02-05-2026 03:30 6,4 85 0 0,9 181 0 1021,4
14 Maule 02-05-2026 03:15 6,6 85 0 2,2 207 0 1021,6
13 Maule 02-05-2026 03:00 6,6 85 0 1,8 185 0 1021,7
12 Maule 02-05-2026 02:45 6,6 85 0 0,9 180 0 1021,8
11 Maule 02-05-2026 02:30 6,7 86 0 2,2 180 0 1021,7
10 Maule 02-05-2026 02:15 6,7 86 0 0,9 169 0 1021,9
9 Maule 02-05-2026 02:00 6,6 88 0 1,3 185 0 1021,9
8 Maule 02-05-2026 01:45 6,6 85 0 0,4 185 0 1021,9
7 Maule 02-05-2026 01:30 7,4 84 0 0,4 185 0 1022,1
6 Maule 02-05-2026 01:15 7,7 84 0 0 185 0 1022,2
5 Maule 02-05-2026 01:00 8 84 0 0 185 0 1022,4
4 Maule 02-05-2026 00:45 8,2 84 0 0,4 185 0 1022,7
3 Maule 02-05-2026 00:30 8,4 83 0 0 185 0 1023
2 Maule 02-05-2026 00:15 8,8 83 0 0,4 185 0 1023,1
1 Maule 02-05-2026 00:00 9,4 82 0 1,3 185 0 1023,3